Holdrege, NE

6:42 AM CST on November 18, 2017 (GMT -0600)
Brewster

Weather History for KHDE - March, 2014

Change the Weather History Date:

Wednesday, March 26, 2014

  Actual Average Record
Temperature  
Mean Temperature 48 °F -  
Max Temperature 66 °F 55 °F 82 °F (2012)
Min Temperature 30 °F 29 °F -9 °F (1965)
Degree Days  
Heating Degree Days 17    
Moisture  
Dew Point 29 °F    
Average Humidity 57    
Maximum Humidity 93    
Minimum Humidity 29    
Precipitation  
Precipitation 0.00 in - - ()
Sea Level Pressure  
Sea Level Pressure 29.63 in    
Wind  
Wind Speed 21 mph (South)    
Max Wind Speed 37 mph    
Max Gust Speed 46 mph    
Visibility 9 miles    
Events Thunderstorm    
Averages and records for this station are not official NWS values.
T = Trace of Precipitation, MM = Missing Value Source: NWS Daily Summary

Daily Weather History Graph

Daily Weather History Graph

Search for Another Location

Airport or City:

Trip Planner

Search our weather history database for the weather conditions in past years. The results will help you decide how hot, cold, wet, or windy it might be!

Date:

Astronomy

Mar. 26, 2014 Rise Set
Actual Time 7:30 AM CDT 7:55 PM CDT
Civil Twilight 7:03 AM CDT 8:23 PM CDT
Nautical Twilight 6:31 AM CDT 8:55 PM CDT
Astronomical Twilight 5:58 AM CDT 9:28 PM CDT
Moon 4:41 AM CDT (3/26) 3:35 PM CDT (3/26)
Length of Visible Light 13h 19m
Length of Day
12h 24m
Waning Crescent, 21% of the Moon is Illuminated
Mar 26
Waning Crescent
Mar 30
New
Apr 7
First Quarter
Apr 15
Full
Apr 22
Last Quarter

Hourly Weather History & Observations

Time (CDT) Temp. Windchill Dew Point Humidity Pressure Visibility Wind Dir Wind Speed Gust Speed Precip Events Conditions
12:15 AM 31.1 °F 20.5 °F 15.4 °F 52% 29.99 in 10.0 mi SSE 15.0 mph - N/A   Clear
12:35 AM 31.5 °F 21.4 °F 15.3 °F 51% 29.98 in 10.0 mi SSE 13.8 mph - N/A   Clear
12:55 AM 31.5 °F 21.4 °F 15.3 °F 51% 29.97 in 10.0 mi SSE 13.8 mph 20.7 mph N/A   Clear
1:15 AM 31.1 °F 20.5 °F 15.4 °F 52% 29.96 in 10.0 mi SSE 15.0 mph - N/A   Clear
1:35 AM 31.8 °F 21.4 °F 16.5 °F 53% 29.94 in 10.0 mi SSE 15.0 mph - N/A   Clear
1:55 AM 32.0 °F 21.2 °F 18.5 °F 58% 29.93 in 10.0 mi SSE 16.1 mph 19.6 mph N/A   Clear
2:15 AM 32.9 °F 22.0 °F 20.1 °F 59% 29.91 in 10.0 mi SSE 17.3 mph - N/A   Clear
2:35 AM 33.4 °F 22.3 °F 20.3 °F 59% 29.90 in 10.0 mi SSE 18.4 mph 25.3 mph N/A   Clear
2:55 AM 33.6 °F 22.9 °F 21.0 °F 60% 29.88 in 10.0 mi SSE 17.3 mph 27.6 mph N/A   Clear
3:15 AM 33.4 °F 21.7 °F 20.7 °F 59% 29.86 in 10.0 mi SSE 20.7 mph 27.6 mph N/A   Clear
3:35 AM 32.9 °F 21.3 °F 20.7 °F 61% 29.85 in 10.0 mi South 19.6 mph 24.2 mph N/A   Clear
3:55 AM 32.4 °F 20.6 °F 20.7 °F 62% 29.84 in 10.0 mi South 19.6 mph 25.3 mph N/A   Clear
4:15 AM 32.0 °F 20.5 °F 20.7 °F 63% 29.83 in 10.0 mi SSE 18.4 mph 28.8 mph N/A   Clear
4:35 AM 32.0 °F 20.1 °F 20.8 °F 63% 29.81 in 10.0 mi SSE 19.6 mph - N/A   Clear
4:55 AM 32.0 °F 20.1 °F 21.0 °F 64% 29.80 in 10.0 mi South 19.6 mph - N/A   Clear
5:15 AM 32.0 °F 20.1 °F 21.6 °F 65% 29.79 in 10.0 mi South 19.6 mph 25.3 mph N/A   Clear
5:35 AM 31.6 °F 20.4 °F 21.7 °F 67% 29.78 in 10.0 mi SSE 17.3 mph - N/A   Clear
5:55 AM 30.9 °F 20.2 °F 21.6 °F 68% 29.77 in 10.0 mi SSE 15.0 mph - N/A   Clear
6:15 AM 30.7 °F 20.4 °F 21.7 °F 69% 29.76 in 10.0 mi SSE 13.8 mph - N/A   Clear
6:35 AM 31.8 °F 21.4 °F 22.5 °F 68% 29.75 in 10.0 mi South 15.0 mph - N/A   Clear
6:55 AM 32.0 °F 21.2 °F 22.5 °F 68% 29.75 in 10.0 mi South 16.1 mph - N/A   Clear
7:15 AM 31.8 °F 20.6 °F 22.1 °F 67% 29.74 in 10.0 mi South 17.3 mph - N/A   Clear
7:35 AM 31.8 °F 21.4 °F 22.1 °F 67% 29.73 in 10.0 mi South 15.0 mph - N/A   Clear
7:55 AM 32.0 °F 20.5 °F 22.6 °F 68% 29.72 in 10.0 mi South 18.4 mph - N/A   Clear
8:15 AM 33.1 °F 22.6 °F 23.0 °F 66% 29.72 in 10.0 mi South 16.1 mph - N/A   Clear
8:35 AM 34.9 °F 24.2 °F 23.5 °F 63% 29.70 in 10.0 mi South 18.4 mph 24.2 mph N/A   Clear
8:55 AM 37.2 °F 27.3 °F 24.4 °F 60% 29.69 in 10.0 mi South 18.4 mph 23.0 mph N/A   Clear
9:15 AM 39.9 °F 30.2 °F 24.4 °F 54% 29.69 in 10.0 mi South 20.7 mph 27.6 mph N/A   Clear
9:35 AM 42.4 °F 32.4 °F 24.4 °F 49% 29.67 in 10.0 mi South 26.5 mph 33.4 mph N/A   Clear
9:55 AM 43.9 °F 34.3 °F 23.9 °F 45% 29.67 in 10.0 mi South 26.5 mph 35.7 mph N/A   Clear
10:15 AM 45.5 °F 36.7 °F 24.1 °F 43% 29.67 in 10.0 mi South 25.3 mph 34.5 mph N/A   Clear
10:35 AM 47.3 °F - 24.3 °F 40% 29.66 in 10.0 mi South 27.6 mph 35.7 mph N/A   Clear
10:55 AM 48.9 °F - 24.6 °F 39% 29.66 in 10.0 mi South 25.3 mph 39.1 mph N/A   Clear
11:15 AM 50.2 °F - 24.6 °F 37% 29.65 in 10.0 mi South 29.9 mph 39.1 mph N/A   Clear
11:35 AM 52.5 °F - 25.7 °F 35% 29.63 in 10.0 mi South 24.2 mph 34.5 mph N/A   Clear
11:55 AM 55.0 °F - 26.4 °F 33% 29.62 in 10.0 mi SSW 21.9 mph 38.0 mph N/A   Clear
12:15 PM 56.7 °F - 27.0 °F 32% 29.60 in 10.0 mi SSW 26.5 mph 36.8 mph N/A   Clear
12:35 PM 59.0 °F - 28.0 °F 31% 29.59 in 10.0 mi South 26.5 mph 36.8 mph N/A   Clear
12:55 PM 60.3 °F - 28.8 °F 30% 29.57 in 10.0 mi South 28.8 mph 39.1 mph N/A   Clear
1:15 PM 61.7 °F - 29.8 °F 30% 29.55 in 10.0 mi SSW 34.5 mph 43.7 mph N/A   Clear
1:35 PM 64.0 °F - 30.9 °F 29% 29.54 in 10.0 mi SSW 31.1 mph 40.3 mph N/A   Clear
1:55 PM 65.3 °F - 32.0 °F 29% 29.53 in 10.0 mi South 27.6 mph 38.0 mph N/A   Clear
2:15 PM 65.3 °F - 32.0 °F 29% 29.52 in 10.0 mi South 29.9 mph 41.4 mph N/A   Clear
2:35 PM 66.0 °F - 33.1 °F 29% 29.51 in 10.0 mi South 34.5 mph 43.7 mph N/A   Clear
2:55 PM 65.8 °F - 34.0 °F 31% 29.49 in 7.0 mi South 35.7 mph 46.0 mph N/A   Clear
3:15 PM 65.3 °F - 33.8 °F 31% 29.49 in 7.0 mi South 36.8 mph 43.7 mph N/A   Clear
3:35 PM 65.1 °F - 34.3 °F 32% 29.48 in 7.0 mi South 33.4 mph 44.9 mph N/A   Clear
3:55 PM 64.4 °F - 35.6 °F 34% 29.48 in 7.0 mi South 25.3 mph 41.4 mph N/A   Clear
4:15 PM 63.3 °F - 37.0 °F 38% 29.48 in 7.0 mi South 27.6 mph 42.6 mph N/A   Clear
4:35 PM 62.4 °F - 38.1 °F 41% 29.47 in 10.0 mi South 32.2 mph 43.7 mph N/A   Clear
4:55 PM 61.5 °F - 38.7 °F 43% 29.46 in 10.0 mi South 31.1 mph 42.6 mph N/A   Clear
5:15 PM 60.3 °F - 39.2 °F 46% 29.46 in 10.0 mi South 31.1 mph 40.3 mph N/A   Clear
5:35 PM 58.1 °F - 39.2 °F 49% 29.46 in 10.0 mi South 27.6 mph 39.1 mph N/A   Clear
5:55 PM 57.7 °F - 39.4 °F 50% 29.46 in 10.0 mi South 26.5 mph 39.1 mph N/A   Clear
6:15 PM 56.3 °F - 39.4 °F 53% 29.46 in 10.0 mi South 32.2 mph 38.0 mph N/A   Clear
6:35 PM 54.7 °F - 39.2 °F 56% 29.46 in 10.0 mi South 26.5 mph 34.5 mph N/A   Clear
6:55 PM 51.6 °F - 39.2 °F 63% 29.47 in 10.0 mi South 25.3 mph 35.7 mph N/A   Clear
7:15 PM 49.3 °F - 39.2 °F 68% 29.47 in 10.0 mi South 26.5 mph 36.8 mph N/A   Clear
7:35 PM 48.2 °F - 39.4 °F 72% 29.45 in 10.0 mi South 21.9 mph 35.7 mph N/A   Clear
7:55 PM 47.5 °F - 40.1 °F 76% 29.45 in 10.0 mi South 29.9 mph 34.5 mph N/A   Scattered Clouds
8:15 PM 47.7 °F - 40.5 °F 76% 29.45 in 10.0 mi South 24.2 mph 33.4 mph N/A   Mostly Cloudy
8:35 PM 47.1 °F - 41.0 °F 79% 29.45 in 10.0 mi South 23.0 mph 35.7 mph N/A   Overcast
8:55 PM 46.4 °F 37.5 °F 41.0 °F 81% 29.44 in 10.0 mi South 27.6 mph 35.7 mph N/A   Overcast
9:15 PM 46.0 °F 37.4 °F 41.4 °F 84% 29.45 in 10.0 mi South 25.3 mph 34.5 mph N/A   Overcast
9:35 PM 45.9 °F 37.4 °F 41.9 °F 86% 29.45 in 7.0 mi South 24.2 mph 29.9 mph N/A   Overcast
9:55 PM 45.3 °F 36.5 °F 41.9 °F 88% 29.44 in 7.0 mi South 25.3 mph 33.4 mph N/A   Overcast
10:15 PM 44.6 °F 36.1 °F 41.9 °F 90% 29.43 in 4.0 mi South 21.9 mph 35.7 mph N/A   Overcast
10:35 PM 44.6 °F 35.3 °F 42.3 °F 91% 29.43 in 4.0 mi South 26.5 mph 33.4 mph N/A   Overcast
10:55 PM 44.2 °F 35.7 °F 42.3 °F 93% 29.42 in 3.0 mi South 21.9 mph 33.4 mph N/A   Overcast
11:15 PM 44.1 °F 35.4 °F 42.1 °F 93% 29.41 in 3.0 mi South 21.9 mph 31.1 mph N/A Thunderstorm Overcast
11:35 PM 44.6 °F 35.9 °F 42.4 °F 92% 29.40 in 4.0 mi SSE 23.0 mph 33.4 mph N/A   Overcast
11:55 PM 44.6 °F 35.7 °F 42.4 °F 92% 29.38 in 4.0 mi South 24.2 mph 32.2 mph N/A   Overcast